Charlottetown, Prince Edward Island

9:11 AM ADT on June 22, 2017 (GMT -0300)
Charlottetown

Weather History for CYYG - August, 2014

Change the Weather History Date:

Wednesday, August 27, 2014

  Actual Average Record
Temperature  
Mean Temperature 71 °F -  
Max Temperature 79 °F 65 °F 84 °F (2012)
Min Temperature 63 °F 49 °F 42 °F (2006)
Cooling Degree Days 6    
Growing Degree Days 21 (Base 50)    
Moisture  
Dew Point 60 °F    
Average Humidity 72    
Maximum Humidity 94    
Minimum Humidity 52    
Precipitation  
Precipitation 0.00 in 0.12 in - ()
Sea Level Pressure  
Sea Level Pressure 29.83 in    
Wind  
Wind Speed 12 mph ()    
Max Wind Speed 17 mph    
Max Gust Speed 28 mph    
Visibility 14.6 miles    
Events Rain    
Averages and records for this station are not official NWS values.
T = Trace of Precipitation, MM = Missing Value Source: Averaged Metar Reports

Daily Weather History Graph

Daily Weather History Graph

Search for Another Location

Airport or City:

Trip Planner

Search our weather history database for the weather conditions in past years. The results will help you decide how hot, cold, wet, or windy it might be!

Date:

Astronomy

Aug. 27, 2014 Rise Set
Actual Time 6:26 AM ADT 8:00 PM ADT
Civil Twilight 5:54 AM ADT 8:32 PM ADT
Nautical Twilight 5:16 AM ADT 9:10 PM ADT
Astronomical Twilight 4:35 AM ADT 9:51 PM ADT
Moon 8:27 AM ADT (8/27) 8:40 PM ADT (8/27)
Length of Visible Light 14h 37m
Length of Day
13h 34m
Waxing Crescent, 4% of the Moon is Illuminated
Aug 27
Waxing Crescent
Sep 2
First Quarter
Sep 8
Full
Sep 15
Last Quarter
Sep 24
New

Hourly Weather History & Observations

Time (ADT) Temp. Dew Point Humidity Pressure Visibility Wind Dir Wind Speed Gust Speed Precip Events Conditions
12:00 AM 66.2 °F 57.2 °F 73% 29.95 in 15.0 mi SW 13.8 mph 26.5 mph N/A   Partly Cloudy
1:00 AM 66.2 °F 53.6 °F 64% 29.94 in 15.0 mi SW 17.3 mph 27.6 mph N/A   Scattered Clouds
3:00 AM 65 °F 51 °F 52% 29.93 in 15 mi SW 13.8 mph - -  
3:00 AM 64.4 °F 51.8 °F 64% 29.93 in 15.0 mi SW 13.8 mph 23.0 mph N/A   Clear
4:00 AM 64.4 °F 51.8 °F 64% 29.91 in 15.0 mi SW 11.5 mph 24.2 mph N/A   Clear
5:00 AM 64.4 °F 53.6 °F 68% 29.88 in 15.0 mi SW 12.7 mph 21.9 mph N/A   Clear
6:00 AM 64.4 °F 55.4 °F 73% 29.88 in 15.0 mi SW 15.0 mph 24.2 mph N/A   Scattered Clouds
7:00 AM 64.4 °F 55.4 °F 73% 29.87 in 15.0 mi SW 13.8 mph 23.0 mph N/A   Mostly Cloudy
9:00 AM 67 °F 59 °F 68% 29.84 in 15 mi SW 16.1 mph - -   Scattered Clouds
9:00 AM 66.2 °F 59.0 °F 78% 29.84 in 15.0 mi SW 17.3 mph 24.2 mph N/A   Mostly Cloudy
10:00 AM 69.8 °F 60.8 °F 73% 29.83 in 15.0 mi SW 12.7 mph 23.0 mph N/A   Mostly Cloudy
11:00 AM 73.4 °F 60.8 °F 65% 29.82 in 15.0 mi SW 16.1 mph 25.3 mph N/A   Mostly Cloudy
12:00 PM 75.2 °F 60.8 °F 61% 29.81 in 15.0 mi SW 16.1 mph 21.9 mph N/A   Mostly Cloudy
1:00 PM 77.0 °F 64.4 °F 65% 29.80 in 15.0 mi WSW 11.5 mph 24.2 mph N/A   Mostly Cloudy
2:00 PM 75.2 °F 64.4 °F 69% 29.80 in 15.0 mi SW 12.7 mph 23.0 mph N/A   Mostly Cloudy
3:00 PM 78 °F 65 °F 57% 29.79 in 15 mi WSW 12.7 mph - -   Partly Cloudy
3:00 PM 77.0 °F 66.2 °F 69% 29.79 in 15.0 mi WSW 10.4 mph 20.7 mph N/A   Mostly Cloudy
4:00 PM 77.0 °F 64.4 °F 65% 29.78 in 15.0 mi WSW 13.8 mph 19.6 mph N/A   Mostly Cloudy
5:00 PM 77.0 °F 62.6 °F 61% 29.78 in 15.0 mi SW 12.7 mph 19.6 mph N/A   Mostly Cloudy
6:00 PM 77.0 °F 64.4 °F 65% 29.77 in 15.0 mi SW 15.0 mph - N/A   Mostly Cloudy
7:00 PM 73.4 °F 64.4 °F 73% 29.77 in 15.0 mi WSW 9.2 mph - N/A   Mostly Cloudy
8:25 PM 71.6 °F 62.6 °F 73% 29.78 in 15.0 mi WSW 10.4 mph - N/A Rain Light Rain Showers
9:00 PM 70 °F 63 °F 72% 29.80 in 15 mi WSW 11.5 mph - - Rain Light Rain Showers
9:00 PM 69.8 °F 62.6 °F 78% 29.79 in 15.0 mi WSW 11.5 mph - N/A Rain Light Rain Showers
10:00 PM 66.2 °F 64.4 °F 94% 29.79 in 10.0 mi Variable 2.3 mph - N/A Rain Light Rain Showers
10:40 PM 66.2 °F 64.4 °F 94% 29.79 in 15.0 mi SW 6.9 mph - N/A   Overcast
11:00 PM 66.2 °F 64.4 °F 94% 29.80 in 15.0 mi WSW 10.4 mph - N/A   Overcast
11:12 PM 66.2 °F 62.6 °F 88% 29.80 in 10.0 mi WSW 11.5 mph - N/A Rain Light Rain Showers
11:44 PM 66.2 °F 62.6 °F 88% 29.78 in 12.0 mi West 3.5 mph - N/A   Overcast